Presure
244 259 269 283 295 142 128 139 195 224 63 64 67 118 120 123 123 111 121 118 106 89 116 117 119 118 104 119 102 103 114 109 110 116 115 77 79 124 116 109 118 118 124 117
243 249 265 271 281 301 316 186 157 131 134 149 152 123 116 119 130 130 114 86 112 87 121 119 113 85 123 99 109 113 106 103 117 122 126 77 113 112 119 123 123 110 119 121
460 378 273 281 291 286 288 304 138 211 132 141 148 143 70 98 110 119 101 100 108 111 99 92 104 122 92 94 125 122 126 110 116 107 104 82 101 103 116 116 125 122 116 113
473 474 467 471 149 472 287 279 298 311 138 127 133 135 141 81 149 117 123 127 122 108 111 106 117 127 89 106 132 133 114 120 116 111 89 74 123 119 115 113 120 99 113 116
463 462 453 434 429 489 524 264 265 286 310 242 124 144 91 113 87 142 151 132 119 119 123 118 123 120 109 127 125 132 84 127 101 124 123 81 90 121 106 117 122 123 122 122
471 421 442 412 406 473 480 489 256 250 273 296 143 115 128 130 166 126 142 131 152 141 101 80 116 125 109 126 141 133 96 108 87 98 127 125 118 121 124 121 123 124 128 125
471 423 409 413 409 440 456 464 407 291 259 286 296 274 213 138 141 127 96 140 143 141 144 145 120 108 117 125 101 117 113 91 90 106 120 122 121 113 124 125 123 119 113 129
464 409 425 387 374 394 442 437 410 417 231 255 271 290 262 249 225 210 132 133 128 144 149 153 149 126 140 130 122 127 125 127 124 127 131 130 121 121 118 97 128 120 100 126
427 418 394 383 383 375 412 113 392 397 401 219 250 285 72 248 238 235 240 155 148 129 125 134 154 170 145 136 133 64 122 118 103 124 126 127 122 85 119 122 109 125 115 139
349 400 384 362 358 364 373 404 386 386 380 385 210 249 194 252 177 223 233 236 233 193 149 172 107 131 131 129 109 141 115 107 118 119 121 116 109 111 115 114 123 133 122 146
302 382 383 379 350 358 369 372 347 352 360 376 79 240 246 243 258 243 234 132 231 232 233 227 225 198 139 117 73 139 134 127 126 128 124 125 122 115 120 113 115 116 101 126
269 295 331 378 368 356 345 357 338 331 354 66 76 80 251 193 73 83 241 232 231 229 231 229 229 158 89 67 211 156 142 143 135 131 132 133 133 134 130 133 130 131 136 139
272 280 290 317 376 370 354 347 335 319 326 298 183 79 135 246 72 187 81 170 72 214 224 226 223 217 131 229 236 214 187 207 166 145 142 199 136 135 138 144 174 139 140 144
247 270 271 289 311 399 380 357 327 335 320 324 375 353 334 362 283 73 74 273 257 243 233 224 86 154 224 220 220 228 224 182 211 210 187 181 206 122 177 178 165 140 145 155
226 255 262 278 286 322 378 366 372 344 333 319 321 358 317 313 338 82 236 245 274 76 102 237 228 225 223 221 222 222 225 228 227 228 197 181 215 204 200 210 200 203 194 191
230 244 248 261 269 286 334 374 365 374 345 323 337 332 320 333 309 321 284 244 240 100 246 239 235 232 233 226 223 222 213 89 220 229 232 228 228 222 226 220 212 206 200 200
226 237 238 247 259 259 291 328 321 376 365 356 336 329 326 315 322 285 313 271 266 238 245 193 259 241 231 186 202 89 223 222 220 217 218 217 224 221 223 222 226 147 163 191
224 233 242 241 249 256 265 291 323 320 381 354 351 382 341 334 298 302 292 313 289 269 267 258 250 268 83 122 192 238 147 228 173 143 228 225 225 153 219 159 226 224 222 224
224 218 235 239 239 254 266 271 286 311 331 388 357 359 367 355 341 310 297 290 293 301 294 266 266 250 72 271 81 250 246 227 240 238 237 242 244 232 222 96 223 226 224 218
213 216 225 233 231 244 246 265 272 279 299 353 391 365 355 354 386 353 356 319 305 296 323 326 291 265 228 252 250 90 268 258 250 249 198 242 238 127 224 236 235 231 228 226
216 221 218 233 228 239 247 247 259 273 286 304 358 390 354 347 354 375 355 361 322 334 297 294 297 293 278 275 269 256 250 249 263 270 259 251 84 244 206 241 236 235 237 238
218 219 219 231 223 233 244 244 249 264 279 298 332 399 388 351 340 338 339 393 368 376 325 313 297 297 316 294 272 256 251 256 257 253 256 265 269 208 233 147 247 245 242 241
217 218 227 225 230 235 239 252 246 261 268 281 297 395 382 371 351 340 332 337 343 378 361 397 345 273 301 305 304 301 300 300 292 276 272 265 257 253 246 234 265 282 276 265
223 215 230 216 228 230 236 248 262 259 267 274 295 380 383 367 356 337 330 328 328 339 375 380 347 369 404 387 326 314 313 313 311 310 310 323 279 267 287 257 246 246 247 246
225 214 222 223 218 229 235 253 250 264 270 277 292 337 390 369 351 341 326 325 323 330 333 332 361 381 375 356 364 385 397 423 393 392 360 346 347 337 328 322 314 206 205 247
217 214 223 219 221 234 234 247 253 260 266 274 280 292 378 373 353 339 331 324 319 323 323 342 349 330 351 374 367 366 367 363 360 365 375 392 414 359 342 343 339 309 172 324
Wind_Speed
82 80 84 89 93 97 83 95 110 120 30 31 36 83 91 84 72 61 70 73 59 50 70 66 63 62 51 58 48 50 59 49 51 57 57 28 26 61 54 47 59 58 62 57
80 79 83 85 87 89 95 103 97 103 105 103 94 85 88 86 76 77 70 47 72 50 80 74 63 48 68 47 52 59 58 51 64 65 62 24 54 53 62 67 64 48 59 62
37 48 73 81 90 88 84 94 107 108 103 96 100 93 30 30 62 74 54 62 72 75 58 51 50 77 43 46 70 67 67 53 63 46 51 27 46 39 65 65 69 67 66 58
28 21 19 17 19 38 87 84 99 108 107 83 91 82 105 49 97 73 74 79 84 77 81 71 83 87 32 47 78 74 59 63 65 53 44 22 69 67 66 60 68 41 69 70
23 17 16 19 23 20 27 82 88 101 110 116 86 83 56 81 44 92 98 90 88 86 90 92 90 82 35 82 73 79 41 71 47 68 69 29 35 73 55 68 74 75 76 78
22 17 10 17 29 15 17 32 89 95 106 119 94 59 94 99 101 83 103 83 102 97 63 23 73 93 49 76 88 82 50 60 49 56 74 73 70 73 75 75 79 77 83 80
18 12 14 7 14 12 13 24 63 91 101 104 117 120 111 105 115 95 50 93 94 96 97 101 78 65 81 83 51 69 67 47 48 61 69 75 73 64 78 79 83 76 70 90
21 13 6 4 15 5 12 30 51 57 85 91 105 118 114 122 128 117 96 90 81 91 100 108 107 93 99 96 92 83 84 86 82 85 85 84 72 76 77 49 91 83 56 91
27 16 6 6 10 12 3 28 42 51 61 82 100 106 6 116 125 126 124 109 111 90 89 95 111 117 105 95 96 21 84 82 60 86 88 88 78 45 83 89 68 93 79 99
56 30 19 10 10 9 10 16 27 40 50 60 80 99 70 120 75 112 121 122 121 120 113 108 69 96 93 92 65 100 75 67 86 87 88 80 70 71 79 83 91 101 91 72
53 43 32 5 18 15 2 14 26 36 43 52 29 101 106 95 121 120 119 61 122 122 123 123 125 118 102 82 33 100 95 94 97 97 94 94 91 81 90 83 83 81 57 97
51 54 50 23 17 12 7 15 30 38 21 22 21 32 106 81 21 18 119 118 121 122 123 123 121 119 62 19 118 120 107 106 105 103 107 106 104 104 100 111 106 107 112 111
51 48 48 46 26 11 1 12 30 39 47 31 43 44 43 102 30 79 25 80 25 114 127 125 124 122 78 123 121 122 104 118 115 113 111 115 108 111 114 122 111 114 116 121
46 49 46 47 42 22 11 16 20 32 42 48 36 57 64 43 100 36 36 114 124 125 127 128 39 83 125 123 121 123 127 100 127 125 104 98 120 67 118 118 123 113 67 123
40 42 45 50 47 41 22 9 10 29 36 42 44 41 75 78 66 43 105 111 113 27 41 128 133 130 127 125 124 123 122 125 126 130 110 98 127 124 120 119 116 117 118 118
39 38 37 44 44 46 35 21 13 12 36 40 40 44 51 70 85 85 101 107 110 40 109 127 129 131 132 131 129 125 126 34 127 127 128 126 126 124 124 121 119 119 119 120
38 35 34 36 38 34 47 34 27 19 18 30 45 47 47 56 63 61 86 103 109 111 115 85 129 133 133 100 112 31 129 132 131 130 129 125 125 122 123 123 124 60 86 105
38 36 34 32 35 34 37 46 35 27 19 25 28 36 54 60 70 72 81 75 94 110 112 115 118 124 26 50 101 135 73 132 94 72 134 135 129 71 125 73 124 121 118 119
34 38 34 36 35 38 44 40 45 40 28 20 28 32 37 56 68 77 82 88 91 91 100 113 116 119 23 124 24 133 132 124 135 135 137 139 138 128 127 40 128 125 120 120
37 37 35 37 38 41 36 42 42 43 44 28 25 32 35 42 54 62 75 86 90 92 85 82 109 117 105 118 119 35 127 129 133 133 106 134 132 72 122 132 132 129 127 127
36 36 37 35 37 43 42 40 43 46 49 45 30 26 36 37 43 51 62 69 86 89 97 100 103 107 115 119 122 120 119 120 125 130 136 135 25 135 110 132 129 129 131 130
34 35 36 34 35 42 46 43 44 51 55 56 44 29 29 40 42 44 50 57 71 82 91 95 103 106 103 112 117 117 117 121 124 123 123 126 129 91 108 65 134 133 131 130
34 33 37 37 36 41 43 52 47 51 52 56 54 32 33 34 39 43 46 46 53 57 67 73 95 89 103 107 109 109 113 117 122 126 125 124 124 123 121 111 124 127 132 135
33 34 39 40 40 43 49 54 58 54 56 56 58 33 29 33 36 41 44 45 46 48 48 53 70 68 66 92 112 115 115 117 119 121 122 122 123 124 128 124 121 122 123 123
35 35 36 35 41 44 50 57 53 62 61 60 62 49 28 28 34 38 42 43 44 44 47 49 50 54 61 69 68 63 63 61 91 94 120 120 121 125 122 121 123 83 81 101
35 39 42 39 41 52 52 57 59 62 63 66 63 62 36 29 29 34 38 40 40 42 43 41 44 48 46 44 51 57 61 64 65 64 64 65 62 114 115 119 123 118 65 127
Wind_Direction
259 259 252 248 246 236 234 239 237 235 223 229 233 238 243 240 233 239 235 242 242 230 253 251 250 248 248 247 254 257 260 263 263 264 268 254 267 274 275 278 277 280 282 288
260 259 259 255 251 243 237 236 236 241 243 238 233 239 249 247 234 230 236 235 249 227 255 254 253 233 252 240 247 250 255 257 262 263 261 256 268 277 276 275 277 282 282 282
294 272 263 252 249 248 241 235 237 234 240 240 236 232 222 234 236 235 233 235 242 252 245 248 246 253 245 249 249 247 248 251 258 261 257 257 273 265 275 278 278 282 283 285
309 301 287 280 243 257 238 232 229 226 240 236 236 230 241 199 235 243 241 234 234 249 255 257 257 252 239 241 252 250 252 251 254 262 258 233 265 269 273 279 274 283 283 285
332 325 277 273 274 291 267 230 227 227 223 228 236 233 254 239 221 239 236 233 239 240 237 253 255 261 254 249 253 253 256 251 252 257 259 270 269 266 271 274 274 275 277 280
336 307 298 256 255 298 253 231 225 226 225 223 238 232 239 245 238 240 237 233 234 236 239 228 255 261 256 259 246 253 259 265 262 265 260 263 267 271 274 276 279 281 281 282
324 305 307 300 304 314 226 222 218 223 225 223 224 228 230 244 246 239 237 241 240 241 241 238 238 268 268 263 256 264 263 247 244 256 268 268 271 273 275 277 280 280 279 281
345 333 320 273 266 293 248 224 216 219 224 225 226 225 224 225 230 232 242 241 241 245 244 243 244 251 247 255 267 262 263 264 266 266 266 266 268 272 274 271 272 276 278 284
1 4 12 3 322 270 255 204 219 217 216 223 225 224 202 225 228 230 233 242 243 238 240 243 245 241 248 250 252 191 257 263 264 266 268 269 270 262 267 271 275 275 276 275
16 9 2 356 348 332 254 206 217 219 219 220 223 223 226 223 219 228 232 234 236 240 245 242 245 247 248 250 246 248 254 255 260 264 265 266 268 265 269 273 270 270 275 266
11 13 11 325 346 323 292 196 215 223 224 222 218 223 226 226 225 228 229 224 235 237 238 239 242 244 248 248 267 251 247 251 255 257 258 260 262 267 268 270 274 276 272 278
0 15 24 3 6 7 297 199 208 210 224 184 208 240 226 227 248 238 229 230 234 236 239 239 240 247 222 269 244 247 251 250 250 252 256 260 262 264 263 265 269 271 273 272
4 12 16 23 15 10 5 226 207 229 226 221 227 240 239 227 227 229 245 227 230 233 237 239 239 240 240 242 241 243 248 248 251 253 255 253 258 262 263 264 255 269 270 270
349 8 6 15 22 351 13 201 234 225 237 234 209 216 225 234 227 229 232 231 231 232 234 238 244 241 242 242 242 241 242 245 245 247 249 249 250 257 255 255 255 261 253 264
339 4 8 13 14 17 0 18 223 227 229 243 244 223 225 229 229 241 231 232 233 243 240 236 239 241 242 243 244 245 245 245 244 244 245 247 250 251 251 248 250 252 257 260
335 354 0 9 12 15 13 350 325 254 223 232 237 236 231 226 235 230 230 233 235 239 235 237 239 241 242 242 244 244 247 256 249 249 248 248 248 249 251 249 250 251 252 253
328 344 346 359 7 6 17 10 353 293 269 230 226 229 221 228 227 234 236 232 235 237 236 238 238 241 242 243 244 248 245 247 248 249 251 249 249 250 250 251 252 255 257 253
324 336 345 347 356 0 8 13 8 347 276 266 251 246 223 217 224 230 235 236 231 236 238 238 239 239 226 239 244 246 248 248 250 252 251 251 253 256 255 262 255 254 254 254
322 321 338 343 344 357 3 2 7 2 343 274 262 254 242 230 223 222 229 234 237 239 238 238 238 241 220 241 248 245 247 249 250 251 254 255 255 254 254 284 257 257 256 257
309 313 327 336 334 348 342 356 359 358 357 332 283 265 253 245 240 232 235 228 233 236 237 234 237 240 243 244 244 258 245 246 250 252 253 255 256 254 257 256 257 257 258 258
306 317 316 335 332 343 345 339 347 351 355 352 322 269 264 256 249 241 240 237 230 229 235 239 241 242 242 242 244 245 247 247 246 247 249 251 256 255 256 257 257 258 258 258
303 311 311 327 319 338 343 338 339 346 351 352 338 293 267 255 254 249 250 245 245 241 233 234 237 241 242 245 247 248 249 249 250 251 251 251 251 252 252 261 256 257 258 259
302 311 319 317 328 340 339 345 337 343 345 348 345 302 284 268 254 251 247 248 249 247 245 248 241 245 246 246 245 247 249 249 250 251 252 253 255 256 257 257 255 255 255 256
307 306 320 309 328 332 338 341 344 341 343 344 346 316 287 273 262 257 255 253 253 254 249 246 244 245 250 250 246 249 250 251 251 252 253 252 254 256 258 256 255 255 256 256
309 303 309 316 311 328 335 343 340 342 342 342 344 336 301 278 266 258 256 258 258 258 257 257 258 256 253 251 250 251 252 256 254 254 253 252 253 253 254 255 256 253 255 259
305 304 318 313 319 334 335 341 342 340 342 344 341 338 307 295 272 264 261 259 260 262 261 264 260 256 259 261 260 261 260 257 253 252 252 254 258 252 254 255 255 257 261 260